Flag for Namibia Weather past 2 weeks in Walvis Bay, Namibia

Now
46 °F

Cool.


Feels Like: 45 °F
Forecast: 56 / 73 °F
Wind: 3 mph from Southeast

Location: Walvis Bay

Current Time: Aug 28, 2014 at 2:33:40 AM

Latest Report: Aug 28, 2014 at 2:00 AM


Visibility: N/A

Pressure: 30.09 "Hg

Humidity: 87%

Dew point: 43 °F

Location of Walvis BayLocation

Historic Weather in Walvis Bay — Graph

°F

Walvis Bay temperature yesterday

Maximum temperature yesterday: 66 °F (at 12:00 PM)
Minimum temperature yesterday: 45 °F (at 12:00 AM)
Average temperature yesterday: 53 °F

Past Weeks' High & Low Weather Summary

 TemperatureHumidityPressure
High72 °F (Aug 16, 10:00 AM)100% (Aug 13, 1:00 AM)30.21 "Hg (Aug 13, 1:00 AM)
Low41 °F (Aug 26, 4:00 AM)35% (Aug 13, 1:00 PM)29.92 "Hg (Aug 16, 2:00 PM)
Average55 °F78%30.07 "Hg
* Reported Aug 13 1:00 AM — Aug 28 1:00 AM, Walvis Bay, Weather by CustomWeather, © 2014

Note: Actual official high and low records may vary slightly from our data, if they occured in-between our weather recording intervals... More about our weather records

Advertising

Walvis Bay weather history for previous 24 hours

 ConditionsComfort  
Time TempWeatherWind HumidityBarometerVisibility
1:00 AM
Aug 28
48 °FCool.3 mph87%30.09 "HgN/A
12:00 AM48 °FCool.5 mph87%30.09 "HgN/A
11:00 PM
Aug 27
52 °FCool.5 mph82%30.12 "HgN/A
10:00 PM52 °FCool.8 mph88%30.09 "HgN/A
9:00 PM54 °FCool.13 mph82%30.09 "HgN/A
8:00 PM57 °FCool.13 mph67%30.07 "HgN/A
7:00 PM57 °FCool.12 mph72%30.04 "HgN/A
6:00 PM59 °FCool.17 mph68%30.01 "HgN/A
5:00 PM63 °FClear.17 mph64%30.01 "Hg10 mi
3:00 PM66 °FMild.16 mph52%29.98 "HgN/A
1:00 PM66 °FSunny.10 mph49%30.04 "Hg10 mi
12:00 PM66 °FSunny.8 mph43%30.07 "Hg10 mi
11:00 AM61 °FSunny.6 mph55%30.09 "Hg10 mi
10:00 AM54 °FPassing clouds.3 mph77%30.12 "HgN/A
9:00 AM50 °FLow clouds.7 mph88%30.12 "HgN/A
8:00 AM46 °FLow clouds.10 mph93%30.12 "HgN/A
7:00 AM48 °FLow clouds.No wind100%30.09 "HgN/A
6:00 AM48 °FLow clouds.3 mph94%30.07 "HgN/A
5:00 AM48 °FCool.2 mph94%30.07 "HgN/A
4:00 AM46 °FCool.1 mph93%30.07 "HgN/A
3:00 AM46 °FCool.3 mph100%30.09 "HgN/A
2:00 AM46 °FCool.6 mph93%30.09 "HgN/A
Weather by CustomWeather, © 2014

See weather overviewHow to use our weather pages